Wind_Speed
39 37 37 36 34 30 26 25 28 35 36 37 37 32 28 27 24 22 17 16 13 9 7 2 5 10 9 8 2 3 2 2 3 4 5 6 7 7 7 8 10 11 11 10 9 8 9 10 11
43 42 41 41 38 33 28 28 28 32 38 34 38 34 33 31 29 26 23 14 15 13 14 11 7 9 8 6 3 3 3 1 1 4 3 5 7 7 8 8 9 9 9 9 9 9 9 9 11
49 47 45 45 43 35 29 28 33 34 37 39 35 40 36 36 35 32 26 20 18 17 18 15 9 8 6 7 6 6 5 2 1 2 3 4 5 6 8 8 9 10 10 10 10 10 10 9 10
49 48 51 48 43 39 33 32 32 40 40 35 39 41 41 39 38 37 29 24 22 21 22 19 15 11 10 9 7 7 7 6 3 2 3 2 3 5 6 9 10 9 8 8 10 11 11 11 11
51 50 52 51 47 40 35 36 34 38 39 40 39 40 43 43 41 40 34 27 26 26 25 24 19 18 16 14 12 10 8 7 5 4 4 4 2 3 5 6 8 9 8 9 11 13 15 14 14
51 53 57 57 51 42 39 38 36 39 40 41 41 43 44 48 42 41 41 29 26 26 27 28 24 23 19 19 16 14 12 8 8 8 7 6 4 5 6 7 8 9 8 10 12 13 13 15 15
49 49 53 54 52 49 41 41 43 43 42 42 40 44 45 48 50 44 40 32 31 29 30 30 30 25 26 23 22 18 14 15 13 10 10 9 8 8 8 9 9 8 8 9 12 13 13 15 17
46 48 50 52 49 49 46 43 42 43 47 45 44 45 49 50 52 53 48 44 36 34 33 31 30 28 30 27 23 21 19 19 18 15 14 11 11 11 12 10 9 10 10 11 13 14 15 14 15
42 47 46 45 44 37 36 44 49 48 52 52 48 45 51 53 56 54 52 51 45 38 35 32 30 29 28 30 31 29 25 24 22 20 17 17 16 13 12 9 10 11 13 14 17 17 16 16 15
37 41 40 39 38 35 35 41 46 52 52 57 56 54 52 54 60 56 55 50 49 46 39 36 32 30 30 30 29 31 33 33 29 26 21 20 18 16 13 11 10 12 13 14 17 18 18 19 16
35 36 37 36 38 39 38 44 46 49 52 55 58 58 59 57 54 59 61 58 51 49 46 44 37 35 34 34 32 29 30 31 33 31 27 23 21 19 18 17 16 16 16 17 18 20 20 20 18
38 40 41 40 42 41 37 43 48 50 47 54 60 61 61 63 59 58 55 55 58 56 50 48 46 43 42 41 42 42 39 35 33 33 32 27 25 23 23 24 23 20 20 20 20 23 23 24 23
42 42 42 42 41 41 40 43 46 45 50 56 58 62 63 63 64 65 62 59 57 53 54 58 57 51 44 45 51 46 43 40 35 34 36 34 33 30 30 33 28 25 23 22 24 27 27 27 26
43 44 44 44 41 43 43 41 45 44 52 54 58 60 63 65 64 65 65 62 60 57 53 50 50 48 55 57 57 47 41 43 41 38 38 39 39 41 31 40 34 31 28 26 26 30 32 30 31
41 43 44 43 41 41 43 42 39 44 47 54 53 58 63 65 66 64 65 65 64 61 57 48 46 47 49 49 53 55 53 45 46 44 44 40 40 41 45 38 40 36 37 34 29 33 34 36 33
37 42 43 42 45 42 43 43 41 46 48 50 53 55 59 63 65 65 64 65 64 63 56 51 49 45 48 51 50 44 42 43 47 50 47 47 43 45 49 46 44 40 42 43 36 30 41 41 35
31 36 40 41 42 45 47 48 44 48 52 53 54 55 58 61 65 67 66 66 64 64 61 57 49 47 42 43 46 48 50 51 47 49 53 48 53 54 54 52 47 48 44 44 42 34 44 47 34
31 34 36 39 39 44 47 49 48 49 51 51 55 58 59 61 65 68 70 69 69 67 66 58 50 48 42 41 43 47 50 47 53 49 49 58 55 57 61 60 55 51 43 34 43 45 50 43 46
31 33 35 37 39 41 42 46 48 50 50 51 52 56 62 63 61 71 71 70 70 70 70 63 54 46 42 40 42 46 42 39 47 46 52 65 61 59 65 59 55 59 54 50 51 53 42 49 52
36 39 39 41 41 45 46 43 46 50 52 51 51 53 56 61 63 64 69 75 74 70 69 67 59 51 44 43 41 47 46 45 47 50 51 59 59 60 64 59 60 73 65 54 56 47 54 54 55
32 34 37 40 41 46 50 45 49 50 52 52 53 51 55 56 57 64 65 68 72 75 74 71 65 59 53 53 54 55 55 56 55 55 54 57 58 62 60 61 61 68 68 55 57 54 60 58 58
32 35 39 42 44 46 44 55 48 50 51 52 50 51 52 54 55 61 65 65 67 68 71 74 72 70 68 62 57 55 53 51 54 58 58 57 56 60 65 61 62 67 60 64 68 70 52 73 58
34 36 38 41 45 51 49 52 52 48 51 47 51 48 54 55 55 57 61 60 60 62 64 64 63 62 60 60 57 54 55 54 52 53 57 56 56 56 57 54 60 58 60 61 68 56 43 37 35
35 37 39 43 44 55 46 44 57 39 39 42 44 49 52 60 59 58 58 60 59 58 57 57 58 58 58 57 55 56 58 55 53 52 53 55 54 57 52 53 53 57 61 41 59 51 41 46 48
36 40 47 51 50 57 48 48 52 30 40 34 32 38 48 54 62 58 57 56 57 55 52 55 53 49 49 50 52 55 56 55 55 55 53 53 53 52 52 48 48 53 53 61 44 57 55 64 60
42 44 46 53 56 57 51 60 41 41 48 41 38 37 41 48 56 57 55 55 53 50 45 45 45 48 49 51 49 52 54 54 55 55 56 54 52 51 52 52 48 48 48 49 46 53 51 52 58
45 45 43 45 47 49 46 41 43 46 39 38 37 36 32 42 39 54 57 56 50 47 48 49 45 48 47 49 54 57 54 55 55 55 55 54 52 51 50 52 52 52 50 48 46 45 41 42 42
43 43 42 42 43 43 38 35 25 25 38 32 26 30 35 37 42 40 51 56 55 55 56 56 55 48 43 43 45 51 59 58 57 55 54 52 51 51 49 49 49 50 49 48 46 43 42 41 36
36 36 37 37 33 30 36 33 30 32 32 34 28 30 32 33 35 35 32 41 47 46 53 60 59 50 48 42 43 46 48 53 57 59 55 52 50 52 51 50 47 48 47 45 44 39 33 29 31
30 32 33 34 30 30 34 34 23 20 34 31 28 32 36 35 36 42 35 35 38 43 47 52 54 56 52 51 52 50 44 45 46 49 53 54 53 51 51 51 50 46 47 45 41 41 35 34 33
Wind_Direction
237 235 236 236 236 229 226 228 223 228 225 217 217 215 219 223 222 236 227 237 243 246 236 287 302 313 291 314 33 349 40 74 43 38 26 29 39 32 19 8 5 357 351 352 358 356 352 356 357
232 237 234 235 234 232 230 231 232 232 232 225 221 218 225 230 224 226 232 231 234 244 251 262 277 308 282 299 315 310 308 100 60 355 14 23 28 17 5 359 -0 359 357 353 345 343 346 348 341
237 236 240 234 233 234 232 230 232 235 234 229 227 221 221 232 233 231 232 235 244 252 258 259 260 260 268 280 300 307 307 295 236 345 339 16 13 5 359 359 360 357 357 348 343 341 340 337 337
236 235 239 238 236 235 235 229 227 237 235 234 231 226 225 227 238 238 237 238 244 249 257 255 245 247 255 266 273 293 301 285 288 320 287 319 343 347 345 346 347 351 353 351 340 338 335 334 333
236 235 233 235 240 238 235 243 226 234 238 236 234 234 229 230 235 242 244 246 248 251 256 264 260 253 253 260 270 283 290 294 252 271 285 286 306 324 334 342 340 338 340 338 344 339 337 337 332
235 236 235 233 237 241 237 238 233 238 239 237 233 232 230 228 229 235 241 245 245 253 261 262 265 265 262 269 263 271 284 283 268 265 259 275 284 297 307 323 332 329 330 324 328 337 336 332 336
239 237 239 238 240 240 238 238 242 236 237 237 236 232 234 231 229 225 231 237 243 245 249 256 261 261 268 263 273 276 288 292 282 260 269 258 269 287 298 310 313 315 320 323 326 327 332 327 318
236 237 238 241 244 242 238 234 234 242 244 239 238 234 230 233 233 230 226 231 240 244 246 249 255 256 259 266 265 270 281 286 283 272 270 264 269 279 295 299 299 296 300 312 319 324 329 330 324
236 237 237 240 242 240 235 231 237 236 247 248 247 246 236 234 236 234 235 233 235 240 243 244 246 247 247 255 260 264 272 277 281 277 270 260 264 263 272 280 287 293 294 305 310 310 314 322 326
237 239 239 239 239 235 229 232 229 233 239 251 252 252 248 241 235 240 238 237 236 237 242 244 239 240 238 240 251 262 268 272 273 276 267 259 260 257 262 266 269 281 288 289 296 301 305 310 318
238 238 240 239 238 235 227 229 229 232 231 233 244 245 247 245 241 240 241 239 238 239 237 242 244 242 243 246 247 250 260 268 267 274 263 258 260 263 262 259 261 272 283 283 290 296 297 300 308
240 242 241 241 241 237 230 230 231 233 235 229 238 242 247 250 246 248 243 243 244 238 240 242 243 246 248 252 254 254 255 255 260 267 259 257 255 258 261 258 259 263 272 284 290 289 293 296 297
246 245 248 248 249 248 242 236 233 237 238 233 232 239 246 249 254 255 254 253 251 247 244 246 243 246 251 250 247 249 251 250 249 253 253 254 255 247 252 252 251 252 260 274 285 287 287 291 292
246 248 250 251 248 249 246 238 238 235 237 236 237 237 242 246 250 253 257 259 258 258 257 252 252 248 244 250 247 246 248 242 237 241 246 249 250 257 237 261 256 242 251 261 274 282 280 282 287
250 249 249 250 252 249 247 240 238 236 237 238 238 240 241 245 248 250 253 254 255 256 258 251 239 246 246 243 242 242 246 243 236 236 238 243 244 246 256 254 262 263 249 251 255 263 275 278 286
251 251 252 253 254 252 252 247 237 236 234 236 237 240 241 243 248 252 253 254 255 254 250 249 244 237 245 248 244 245 251 231 235 236 237 238 238 239 239 243 240 255 249 252 251 263 268 271 277
252 252 252 253 259 260 256 251 243 241 238 234 237 238 240 241 243 247 250 253 254 256 256 251 245 238 238 247 258 253 244 241 236 237 237 239 244 244 250 246 244 249 239 249 251 252 258 260 271
250 253 253 254 253 257 259 257 254 247 246 242 239 239 238 238 240 242 246 248 251 256 257 255 243 238 244 246 249 250 246 243 239 232 236 236 238 238 242 246 251 248 242 245 257 246 260 268 277
258 257 259 262 264 260 261 258 259 258 251 248 245 243 244 243 239 240 241 245 248 249 252 254 251 245 247 248 244 243 246 252 248 250 230 234 228 236 244 242 246 255 252 237 245 251 248 258 267
258 258 260 262 265 266 264 258 263 264 261 256 246 244 243 245 244 242 242 244 245 247 249 250 250 250 249 239 238 238 244 254 243 242 242 242 251 256 255 238 249 255 253 246 247 248 244 254 259
266 269 268 267 262 265 267 261 257 261 265 263 262 254 248 246 246 246 244 244 246 249 252 255 255 253 250 248 254 252 251 247 252 251 250 248 250 250 256 255 252 255 255 251 253 251 253 255 259
279 275 276 276 275 273 269 272 264 264 264 263 262 264 259 248 243 245 247 245 245 246 249 252 254 255 255 252 250 251 249 247 246 249 249 247 252 249 248 253 255 255 258 251 259 256 271 252 264
283 283 283 283 281 279 274 275 279 274 269 265 259 255 251 252 249 243 244 244 245 245 246 249 253 254 255 255 252 248 250 249 249 248 249 249 253 248 245 247 247 254 258 266 249 257 252 258 277
284 287 286 284 279 277 284 279 277 280 276 264 260 249 244 242 246 243 245 244 244 245 247 250 251 251 251 250 249 249 248 249 251 250 248 248 251 252 251 249 249 252 256 267 271 269 269 269 269
288 287 285 284 281 280 279 272 270 271 279 273 265 263 247 243 240 245 246 247 247 249 253 248 246 247 251 249 249 247 245 247 247 248 247 248 251 251 249 252 253 258 261 262 266 270 273 272 281
298 297 296 294 294 293 284 272 277 271 276 265 261 262 250 250 244 246 245 242 242 242 245 243 240 244 249 251 245 246 244 244 245 245 246 247 249 251 251 252 254 253 255 261 263 264 267 271 268
299 300 298 295 294 292 292 285 260 269 273 267 263 252 257 256 254 249 245 244 242 237 242 247 249 252 249 247 244 244 244 243 243 243 244 246 249 251 253 251 250 251 256 260 260 266 270 268 270
300 302 301 299 296 292 291 292 280 271 263 260 264 262 259 259 252 254 244 245 245 244 244 246 250 251 248 239 239 242 243 244 246 247 246 247 248 251 253 253 254 252 254 258 262 264 263 264 269
299 298 297 297 295 280 284 291 275 274 271 250 259 258 256 260 260 252 250 240 241 242 234 234 240 237 231 231 233 234 237 241 245 247 247 247 246 247 251 253 253 252 254 254 255 257 256 254 261
292 298 298 297 297 289 282 259 264 263 249 257 259 250 252 249 259 260 252 247 247 242 237 229 226 225 228 229 231 233 234 235 237 241 244 243 243 244 247 251 254 255 253 255 256 255 254 252 259
Height
5843 5848 5853 5855 5861 5863 5868 5871 5870 5869 5872 5873 5874 5878 5881 5883 5886 5890 5890 5890 5891 5892 5894 5896 5898 5900 5901 5902 5902 5904 5905 5905 5907 5907 5908 5908 5907 5907 5907 5907 5907 5907 5908 5907 5905 5904 5903 5903 5902
5836 5841 5846 5849 5853 5858 5863 5865 5865 5865 5868 5871 5872 5876 5879 5881 5882 5885 5886 5887 5889 5891 5893 5894 5896 5899 5900 5901 5902 5903 5904 5904 5906 5908 5907 5907 5908 5908 5908 5908 5908 5908 5908 5907 5906 5904 5902 5901 5901
5830 5834 5839 5842 5846 5854 5858 5860 5860 5859 5861 5867 5869 5873 5876 5878 5880 5881 5882 5884 5887 5889 5890 5892 5894 5897 5900 5900 5901 5902 5903 5903 5904 5905 5907 5908 5909 5908 5909 5909 5909 5907 5907 5907 5906 5905 5903 5901 5900
5824 5827 5831 5835 5843 5848 5851 5851 5853 5853 5856 5863 5866 5869 5873 5875 5876 5878 5880 5881 5883 5886 5887 5889 5892 5895 5897 5899 5899 5901 5902 5903 5904 5905 5906 5907 5908 5908 5908 5909 5909 5908 5907 5906 5905 5903 5902 5901 5899
5816 5820 5823 5828 5838 5844 5846 5845 5845 5846 5851 5856 5860 5863 5867 5869 5873 5875 5876 5878 5880 5883 5885 5887 5890 5892 5894 5896 5898 5899 5901 5902 5903 5904 5906 5906 5907 5907 5907 5908 5908 5907 5906 5905 5904 5903 5902 5900 5898
5808 5813 5817 5822 5833 5837 5840 5841 5840 5839 5843 5847 5853 5855 5860 5863 5866 5869 5871 5873 5876 5878 5881 5884 5887 5890 5892 5894 5895 5897 5899 5901 5902 5903 5904 5905 5906 5906 5906 5906 5906 5906 5905 5904 5903 5902 5902 5900 5898
5801 5806 5811 5817 5823 5829 5834 5835 5836 5833 5835 5841 5845 5850 5855 5857 5858 5862 5865 5868 5871 5874 5877 5880 5882 5886 5889 5891 5893 5895 5897 5898 5900 5901 5902 5903 5903 5904 5904 5905 5904 5904 5904 5903 5902 5901 5901 5900 5898
5796 5799 5802 5808 5817 5824 5824 5828 5830 5827 5831 5832 5836 5841 5846 5849 5851 5855 5858 5862 5865 5869 5872 5875 5877 5881 5884 5886 5890 5892 5894 5895 5897 5898 5900 5901 5902 5902 5902 5903 5903 5903 5902 5902 5901 5900 5900 5898 5897
5788 5792 5798 5805 5810 5817 5814 5819 5823 5822 5824 5825 5829 5834 5839 5841 5841 5847 5853 5858 5860 5862 5865 5870 5873 5875 5878 5881 5883 5886 5890 5892 5894 5896 5897 5898 5898 5899 5899 5900 5901 5901 5901 5901 5900 5899 5898 5897 5896
5783 5788 5793 5798 5800 5805 5807 5808 5812 5814 5820 5818 5820 5823 5829 5832 5836 5841 5846 5850 5854 5858 5860 5863 5867 5871 5873 5876 5879 5881 5883 5888 5890 5892 5894 5895 5895 5896 5896 5896 5897 5898 5898 5898 5898 5897 5896 5895 5894
5778 5783 5784 5788 5790 5794 5798 5798 5802 5804 5812 5816 5810 5812 5815 5819 5825 5831 5837 5843 5848 5850 5854 5857 5861 5865 5868 5870 5873 5876 5878 5881 5884 5886 5888 5890 5892 5893 5894 5894 5893 5895 5895 5896 5895 5894 5893 5893 5892
5771 5774 5776 5780 5781 5784 5792 5792 5793 5798 5809 5807 5805 5804 5805 5809 5815 5820 5825 5832 5841 5845 5849 5851 5854 5858 5860 5863 5866 5869 5872 5875 5878 5881 5883 5885 5887 5889 5889 5889 5889 5890 5892 5893 5892 5891 5890 5890 5889
5764 5768 5770 5773 5775 5778 5783 5786 5788 5798 5797 5796 5800 5801 5801 5804 5806 5809 5815 5821 5827 5834 5842 5846 5849 5852 5853 5856 5858 5861 5864 5868 5872 5875 5878 5880 5881 5882 5883 5883 5884 5885 5886 5887 5888 5887 5887 5886 5885
5755 5758 5760 5762 5765 5766 5771 5779 5781 5791 5783 5788 5791 5796 5796 5798 5800 5803 5805 5809 5815 5819 5828 5834 5837 5839 5843 5846 5849 5852 5855 5858 5862 5866 5870 5873 5875 5876 5873 5876 5877 5878 5880 5881 5882 5883 5882 5881 5882
5747 5750 5751 5753 5753 5756 5759 5769 5777 5776 5775 5778 5784 5787 5790 5791 5792 5797 5798 5800 5805 5809 5816 5822 5826 5828 5832 5834 5836 5841 5844 5847 5851 5856 5859 5863 5865 5866 5867 5868 5871 5872 5873 5875 5875 5876 5877 5877 5876
5742 5743 5742 5742 5741 5745 5749 5761 5764 5760 5764 5768 5773 5776 5778 5782 5783 5785 5788 5789 5794 5796 5804 5813 5816 5820 5822 5825 5826 5831 5821 5827 5840 5844 5848 5852 5853 5855 5855 5855 5859 5862 5863 5866 5868 5869 5871 5870 5871
5736 5736 5736 5737 5734 5734 5739 5748 5751 5749 5752 5759 5761 5764 5767 5771 5773 5775 5777 5779 5783 5786 5793 5802 5809 5812 5815 5816 5817 5820 5824 5825 5830 5835 5840 5842 5845 5845 5847 5848 5848 5848 5850 5855 5857 5860 5863 5862 5863
5727 5727 5728 5727 5730 5728 5731 5737 5737 5740 5742 5750 5752 5752 5755 5758 5763 5769 5768 5770 5771 5774 5780 5788 5796 5801 5805 5807 5808 5809 5813 5817 5820 5824 5829 5830 5832 5834 5833 5839 5841 5840 5840 5846 5850 5851 5852 5855 5856
5722 5722 5721 5721 5721 5722 5724 5726 5726 5726 5733 5738 5741 5742 5742 5745 5753 5754 5757 5759 5762 5765 5769 5776 5783 5790 5793 5797 5799 5800 5803 5807 5810 5813 5816 5815 5816 5823 5825 5826 5833 5834 5835 5834 5837 5840 5841 5845 5846
5713 5714 5715 5716 5715 5712 5712 5718 5718 5716 5718 5722 5727 5729 5731 5734 5739 5742 5745 5748 5750 5755 5759 5764 5772 5779 5782 5786 5787 5790 5793 5795 5798 5800 5802 5805 5807 5809 5814 5816 5820 5823 5825 5827 5828 5830 5831 5832 5836
5708 5707 5706 5705 5706 5703 5700 5705 5707 5707 5706 5708 5711 5717 5719 5721 5725 5726 5731 5736 5739 5743 5748 5753 5759 5766 5769 5772 5775 5778 5782 5784 5785 5788 5793 5797 5799 5801 5804 5809 5811 5814 5816 5819 5822 5823 5824 5825 5827
5702 5699 5696 5695 5694 5693 5696 5685 5695 5696 5695 5697 5702 5701 5704 5706 5709 5711 5714 5720 5727 5732 5734 5738 5744 5749 5755 5759 5760 5763 5767 5770 5773 5774 5777 5782 5784 5789 5797 5797 5800 5803 5801 5804 5810 5812 5813 5814 5818
5692 5691 5689 5686 5682 5678 5679 5677 5681 5684 5683 5687 5687 5686 5686 5688 5693 5698 5700 5705 5711 5715 5720 5724 5729 5733 5738 5742 5747 5750 5753 5756 5761 5765 5766 5768 5772 5777 5783 5787 5791 5790 5791 5793 5788 5792 5799 5805 5808
5683 5681 5678 5675 5673 5664 5672 5668 5656 5672 5669 5667 5669 5668 5670 5674 5676 5682 5688 5692 5698 5704 5710 5714 5717 5720 5724 5729 5733 5737 5741 5745 5748 5752 5754 5756 5760 5763 5770 5775 5778 5779 5780 5779 5778 5783 5788 5795 5797
5675 5672 5665 5662 5661 5654 5657 5650 5647 5661 5652 5653 5652 5654 5657 5659 5664 5671 5676 5682 5687 5693 5699 5702 5703 5707 5710 5715 5720 5725 5728 5732 5735 5738 5741 5744 5747 5752 5759 5763 5767 5768 5769 5773 5767 5772 5776 5783 5788
5662 5659 5655 5644 5642 5639 5642 5633 5644 5645 5641 5637 5640 5642 5646 5648 5653 5657 5662 5668 5674 5680 5684 5688 5692 5696 5700 5703 5706 5709 5714 5719 5723 5726 5728 5732 5736 5739 5745 5751 5757 5760 5762 5763 5766 5767 5769 5773 5779
5652 5649 5645 5637 5633 5624 5625 5626 5631 5630 5628 5630 5631 5632 5635 5639 5640 5643 5647 5652 5659 5665 5671 5675 5681 5684 5688 5690 5693 5696 5701 5705 5709 5713 5718 5722 5727 5729 5732 5737 5742 5748 5750 5753 5757 5760 5759 5763 5765
5642 5639 5633 5629 5622 5616 5615 5615 5618 5618 5619 5620 5623 5624 5625 5626 5628 5628 5631 5638 5644 5651 5657 5663 5667 5672 5676 5677 5679 5682 5687 5692 5696 5702 5707 5711 5715 5718 5722 5725 5728 5733 5738 5742 5746 5748 5750 5753 5753
5635 5631 5626 5622 5618 5613 5608 5608 5607 5609 5608 5608 5613 5615 5615 5618 5618 5618 5621 5626 5632 5637 5641 5646 5654 5658 5660 5664 5666 5670 5675 5680 5684 5689 5695 5699 5704 5708 5711 5714 5718 5722 5727 5731 5735 5738 5739 5742 5746
5628 5624 5618 5614 5612 5608 5603 5602 5600 5598 5598 5600 5603 5605 5605 5607 5609 5611 5613 5617 5620 5625 5629 5634 5639 5644 5648 5649 5652 5658 5664 5669 5673 5677 5681 5687 5691 5696 5700 5704 5708 5712 5716 5720 5724 5727 5730 5733 5736